Miscellaneous Local Product
Issued by NWS Hastings, NE

Home | Current Version | Previous Version | Graphics & Text | Print | Product List | Glossary On
Versions: 1 2 3 4 5 6 7 8 9 10 11 12 13 14 15 16 17 18 19 20 21 22 23 24 25 26 27 28 29 30 31 32 33 34 35 36 37 38 39 40 41 42 43 44 45 46 47 48 49 50
000
AXUS43 KGID 200602
MISGRI

GID CWA HOURLY WEATHER ROUNDUP
NATIONAL WEATHER SERVICE HASTINGS NE
1200 AM CST SAT JAN 20 2018

NOTE: "FAIR" INDICATES FEW OR NO CLOUDS BELOW 12,000 FEET WITH NO
SIGNIFICANT WEATHER AND/OR OBSTRUCTIONS TO VISIBILITY.

...SOUTH CENTRAL NEBRASKA...

CITY           SKY/WX    TMP DP  RH WIND       PRES   REMARKS
GRAND ISLAND   CLOUDY    32  30  92 N9        29.76S WCI  24
KEARNEY        CLOUDY    35  31  85 N14       29.75S WCI  26
HASTINGS       CLOUDY    29  24  82 CALM      29.76R
ORD            CLOUDY    32  30  92 NW7       29.77R WCI  26
YORK           CLOUDY    28  27  93 CALM      29.76S
AURORA         CLOUDY    32  29  87 N9        29.75F WCI  24
LEXINGTON      CLOUDY    34  30  87 N8        29.75F WCI  27
HOLDREGE       CLOUDY    32  30  90 N9        29.73S WCI  24
HEBRON         CLOUDY    29  25  86 CALM      29.77R

...NEBRASKA PANHANDLE...

CITY           SKY/WX    TMP DP  RH WIND       PRES   REMARKS
CHADRON        PTCLDY    26  24  92 N3        29.77S
ALLIANCE       CLOUDY    27  27 100 CALM      29.76S
SCOTTSBLUFF    CLOUDY    31  28  89 CALM      29.76F
SIDNEY         CLOUDY    32  25  75 CALM      29.77R

...WESTERN AND NORTH CENTRAL NEBRASKA...

CITY           SKY/WX    TMP DP  RH WIND       PRES   REMARKS
VALENTINE      CLEAR     30  27  88 SW9       29.79R WCI  22
AINSWORTH      PTCLDY    31  30  96 W6        29.80R WCI  25
ONEILL         CLOUDY    33  31  92 W5        29.78S WCI  29
BROKEN BOW     CLOUDY    37  31  78 N5        29.78R WCI  33
IMPERIAL       CLOUDY    31  28  89 N7        29.76R WCI  24
NORTH PLATTE   CLOUDY    34  29  82 CALM      29.77F
MCCOOK         MOCLDY    34  28  79 N7        29.73F WCI  28

...EASTERN NEBRASKA...

CITY           SKY/WX    TMP DP  RH WIND       PRES   REMARKS
NORFOLK        CLOUDY    31  29  92 W3        29.76R
SO SIOUX CITY  CLOUDY    32  29  88 W5        29.77S WCI  27
TEKAMAH        CLOUDY    33  27  78 NW6       29.77R WCI  28
COLUMBUS       CLOUDY    26  24  92 W6        29.77S WCI  19
ALBION         CLOUDY    33  31  91 NW3       29.77R
OMAHA EPPLEY   CLOUDY    33  27  78 SE5       29.78R WCI  29
OFFUTT AFB     CLOUDY    27  24  90 CALM      29.77S
MILLARD        CLOUDY    30  26  86 CALM      29.78R
LINCOLN        CLOUDY    28  23  81 NW3       29.79R
NEBRASKA CITY  CLOUDY    34  29  83 S7        29.78S WCI  28
BEATRICE       CLOUDY    31  27  86 SE5       29.77F WCI  26
FALLS CITY     CLOUDY    32  25  75 S3        29.80R

...NORTHERN KANSAS...

CITY           SKY/WX    TMP DP  RH WIND       PRES   REMARKS
GOODLAND       MOCLDY    35  20  54 W6        29.72R WCI  30
HILL CITY      CLOUDY    30  18  60 NW6       29.71R WCI  24
NORTON         CLEAR     34  19  55 N8        29.71S WCI  27
PHILLIPSBURG   CLEAR     32  19  59 CALM      29.72F
SMITH CENTER     N/A     32  19  59 NE6       29.74R WCI  26
BELOIT         CLEAR     34  23  64 CALM      29.74S
HAYS           CLOUDY    34  16  47 S7        29.71F WCI  28
RUSSELL        CLOUDY    41  22  46 S13       29.70F
CONCORDIA      CLOUDY    41  25  53 S12       29.74F
SALINA         CLOUDY    45  29  53 S15       29.76S
TOPEKA         CLOUDY    43  31  62 S6        29.83S



USA.gov is the U.S. government's official web portal to all federal, state and local government web resources and services.